weather.gov     
National Weather Service

Regional Weather Roundup
NWS Homepage
This page is being discontinued on March 12, 2014.
The same data is available at this site. Please update your bookmarks.
Thank you, and we apologize for the inconvenience.
Please send an email to SR-SRH.Webmaster@noaa.gov with any concerns.


Current Version
Previous Version:    01  02  03  04  05  06  07  08  09  10  11  12  13  14  15  16  17  18  19  20  21  22  23  24  25  26  27  28  29  30  
   31  32  33  34  35  36  37  38  39  40  41  42  43  44  45  46  47  48  49  50  51  52  53  54  55  56  57  58  59  60  
[Printable]
733
ASMX46 KSGX 010010
RWRMX

MEXICAN WEATHER ROUNDUP
NATIONAL WEATHER SERVICE SAN DIEGO CA
500 PM PDT TUE SEP 30 2014

BAJA CALIFORNIA

CITY           SKY/WX    TMP DP  RH WIND       PRES   REMARKS
ENSENADA NW      N/A     71  32  23 W15       29.76F
LA PAZ         MOSUNNY   91  64  40 N9        29.71
LORETO           N/A    N/A N/A N/A MISG        N/A
MEXICALI       SUNNY     95  34  11 S3        29.69
S.J. DEL CABO  MOSUNNY   88  73  62 S14       29.71F HX  96
TIJUANA        SUNNY     75  57  53 W8        29.80F

NORTHWESTERN MEXICO

CITY           SKY/WX    TMP DP  RH WIND       PRES   REMARKS
CHIHUAHUA      MOSUNNY   82  52  34 NE5       29.91
CULIACAN       MOSUNNY   93  79  62 W10       29.69  HX 110
GUAYMAS        SUNNY     91  73  55 SW21      29.63  HX 100
HERMOSILLO     SUNNY     95  54  24 SW8       29.75
JUAREZ         MOSUNNY   86  54  32 W13       29.80
LOS MOCHIS     SUNNY     91  70  49 NW17      29.67S HX  97
OBREGON        SUNNY     95  59  30 W15       29.64

NORTHEASTERN MEXICO

CITY           SKY/WX    TMP DP  RH WIND       PRES   REMARKS
MATAMOROS      PTCLDY    88  75  66 CALM      29.78  HX  97
MONTERREY      CLEAR     82  66  57 E5        29.78S
NUEVO LAREDO   PTCLDY    95  70  43 CALM      29.74  HX 101
REYNOSA        PTCLDY    84  70  61 SE2       29.74
SALTILLO       CLEAR     79  61  53 N12       29.98S
TORREON        PTCLDY    88  50  27 CALM      29.87F
VICTORIA       PTCLDY    88  70  55 NE7       29.76

WESTERN MEXICO

CITY           SKY/WX    TMP DP  RH WIND       PRES   REMARKS
AGUASCALIENTES MOCLDY    72  46  40 E6        30.05
COLIMA         CLOUDY    72  72 100 CALM      29.86S FOG
DURANGO        MOCLDY    75  46  35 NE3       30.05
GUADALAJARA    LGT RAIN  66  61  82 SE9       29.99
MANZANILLO     PTSUNNY   82  77  83 NE6       29.69R
MAZATLAN       PTSUNNY   86  75  70 N13       29.71R HX  95
PTO. VALLARTA  CLOUDY    84  73  70 SW6       29.71S
URUAPAN        MOCLDY    70  64  83 CALM      30.00F
ZACATECAS      MOCLDY    73  46  38 E6        30.10S

CENTRAL MEXICO

CITY           SKY/WX    TMP DP  RH WIND       PRES   REMARKS
CUERNAVACA     MOCLDY    77  64  65 SW7       29.91R
LEON           MOCLDY    75  57  53 N3        30.07R
MEXICO CITY    MOCLDY    73  50  43 SE10      30.11R
MORELIA        MOCLDY    68  61  77 S5        30.03
POZA RICA      CLEAR     82  70  65 E7        29.78S
PUEBLA         MOCLDY    70  54  56 CALM      30.12R
QUERETARO      MOCLDY    73  55  53 E6        30.08R
S. LUIS POTOSI MOCLDY    70  52  52 NE9       30.05S
TAMPICO        PTCLDY    84  72  65 E10       29.76R
TOLUCA         MOCLDY    63  46  55 S14       30.19R
VERACRUZ       PTCLDY    82  73  74 SE6       29.76R

SOUTHERN MEXICO

CITY           SKY/WX    TMP DP  RH WIND       PRES   REMARKS
ACAPULCO       MOCLDY    81  77  89 SE6       29.72S
B. DE HUATULCO   N/A    N/A N/A N/A MISG        N/A
MINATITLAN       N/A    N/A N/A N/A MISG        N/A
OAXACA         MOCLDY    72  59  64 S8        30.04R
PTO. ESCONDIDO CLOUDY    77  73  88 S35G48    29.89R
TAPACHULA      MOCLDY    82  79  89 SW17      29.77R
TUX. GUTIERREZ CLOUDY    82  73  74 CALM      29.81R
VILLAHERMOSA   PTCLDY    86  75  70 CALM      29.77R HX  95
ZIHUATANEJO    LGT RAIN  77  75  94 NE12      29.73S

YUCATAN PENINSULA

CITY           SKY/WX    TMP DP  RH WIND       PRES   REMARKS
CAMPECHE       CLEAR     86  79  79 W7        29.75R HX  99
CANCUN         PTCLDY    82  77  83 SE5       29.83R
CHETUMAL       MOCLDY    84  75  74 E17       29.79R
C. DEL CARMEN  PTCLDY    88  77  70 N6        29.75  HX 100
COZUMEL        CLEAR     79  77  94 SE3       29.83R
MERIDA         PTCLDY    86  73  66 E5        29.79R

$$





U.S. Dept. of Commerce
NOAA National Weather Service
1325 East West Highway
Silver Spring, MD 20910
E-mail: w-nws.webmaster@noaa.gov
Page last modified: May 16, 2007
NATIONAL WEATHER SERVICE: for Safety, for Work, for Fun - FOR LIFE